DLH123 EDDF-EDDM

Flight info

Callsign DLH123
Flight time 0h 47m
Altitude 23000
Route CINDY8S/18 CINDY Z74 HAREM T104 ROKIL ROKIL1A
Aircraft B738/M-SDE2E3FGHIRWXY/LB1

Departure

Time 2026-05-04 17:03
Airport Frankfurt Main Airport (EDDF)

Arrival

Time 2026-05-04 17:51
Airport Munich Airport (EDDM)
Time Latitude Longitude Altitude Speed Heading
2026-05-04 16:06 50.04653 8.56806 370 ft 0 kts 295°
2026-05-04 16:50 50.04638 8.56861 370 ft 2 kts 289°
2026-05-04 16:50 50.04638 8.56901 370 ft 1 kts 244°
2026-05-04 16:51 50.04656 8.56928 370 ft 1 kts 205°
2026-05-04 16:51 50.04657 8.56929 370 ft 0 kts 205°
2026-05-04 16:55 50.04623 8.56909 370 ft 8 kts 199°
2026-05-04 16:56 50.04465 8.56827 370 ft 12 kts 221°
2026-05-04 16:56 50.04364 8.56479 370 ft 14 kts 250°
2026-05-04 16:57 50.04321 8.56287 370 ft 22 kts 251°
2026-05-04 16:57 50.04203 8.55788 370 ft 27 kts 250°
2026-05-04 16:58 50.04008 8.54973 370 ft 31 kts 250°
2026-05-04 16:58 50.03907 8.54549 370 ft 31 kts 250°
2026-05-04 16:59 50.03766 8.54081 370 ft 26 kts 249°
2026-05-04 17:00 50.03552 8.53204 370 ft 12 kts 249°
2026-05-04 17:00 50.03513 8.53046 370 ft 7 kts 249°
2026-05-04 17:01 50.03431 8.52718 370 ft 0 kts 249°
2026-05-04 17:01 50.03349 8.52594 370 ft 10 kts 184°
2026-05-04 17:02 50.03328 8.52593 370 ft 0 kts 181°
2026-05-04 17:02 50.02634 8.52602 371 ft 135 kts 180°
2026-05-04 17:03 50.01569 8.52614 939 ft 166 kts 180°
2026-05-04 17:03 50.00477 8.52585 2025 ft 164 kts 181°
2026-05-04 17:03 49.98072 8.52621 3549 ft 187 kts 175°
2026-05-04 17:04 49.95566 8.54866 3822 ft 247 kts 128°
2026-05-04 17:04 49.94274 8.59532 3965 ft 226 kts 102°
2026-05-04 17:05 49.93935 8.64434 4000 ft 230 kts 94°
2026-05-04 17:05 49.93243 8.69228 3990 ft 229 kts 122°
2026-05-04 17:06 49.90922 8.72616 4001 ft 230 kts 143°
2026-05-04 17:06 49.89638 8.74068 4000 ft 230 kts 144°
2026-05-04 17:07 49.87595 8.77937 4204 ft 248 kts 121°
2026-05-04 17:07 49.87063 8.79352 5440 ft 233 kts 120°
2026-05-04 17:07 49.85939 8.82420 6495 ft 271 kts 119°
2026-05-04 17:07 49.85048 8.84875 7955 ft 270 kts 119°
2026-05-04 17:08 49.84127 8.87415 9201 ft 276 kts 119°
2026-05-04 17:08 49.82239 8.92616 10930 ft 281 kts 119°
2026-05-04 17:08 49.81273 8.95273 10991 ft 285 kts 119°
2026-05-04 17:09 49.80311 8.97918 10994 ft 285 kts 119°
2026-05-04 17:09 49.79334 9.00599 10998 ft 284 kts 119°
2026-05-04 17:09 49.78366 9.03254 10999 ft 284 kts 119°
2026-05-04 17:10 49.76456 9.08608 10989 ft 284 kts 113°
2026-05-04 17:10 49.74886 9.17466 10999 ft 284 kts 104°
2026-05-04 17:11 49.74202 9.20309 10971 ft 284 kts 121°
2026-05-04 17:11 49.72934 9.22603 10989 ft 283 kts 137°
2026-05-04 17:11 49.70159 9.26930 11000 ft 284 kts 133°
2026-05-04 17:12 49.68822 9.29204 10999 ft 284 kts 131°
2026-05-04 17:12 49.66192 9.33786 11792 ft 292 kts 131°
2026-05-04 17:13 49.62190 9.40819 15150 ft 302 kts 131°
2026-05-04 17:14 49.57991 9.48206 18066 ft 315 kts 131°
2026-05-04 17:14 49.56531 9.50769 18981 ft 319 kts 131°
2026-05-04 17:14 49.53586 9.55934 20697 ft 328 kts 131°
2026-05-04 17:15 49.52085 9.58561 21512 ft 332 kts 131°
2026-05-04 17:15 49.49013 9.63934 22909 ft 334 kts 131°
2026-05-04 17:16 49.45898 9.69368 22996 ft 341 kts 131°
2026-05-04 17:16 49.41160 9.77613 23019 ft 352 kts 131°
2026-05-04 17:17 49.39537 9.80432 23002 ft 356 kts 131°
2026-05-04 17:17 49.34617 9.88942 22999 ft 353 kts 131°
2026-05-04 17:18 49.32995 9.91740 23000 ft 353 kts 131°
2026-05-04 17:18 49.29716 9.97388 23000 ft 354 kts 131°
2026-05-04 17:19 49.26445 10.03008 23000 ft 354 kts 131°
2026-05-04 17:19 49.23188 10.08593 23000 ft 354 kts 131°
2026-05-04 17:20 49.19909 10.14204 23000 ft 354 kts 131°
2026-05-04 17:20 49.16640 10.19794 23000 ft 354 kts 131°
2026-05-04 17:20 49.14997 10.22599 23000 ft 354 kts 131°
2026-05-04 17:21 49.11628 10.28098 22999 ft 353 kts 133°
2026-05-04 17:21 49.08306 10.33451 22098 ft 348 kts 133°
2026-05-04 17:22 49.06633 10.36142 21595 ft 347 kts 133°
2026-05-04 17:22 49.05003 10.38758 21153 ft 344 kts 133°
2026-05-04 17:23 49.00201 10.46454 20253 ft 339 kts 133°
2026-05-04 17:23 48.98473 10.49211 19750 ft 337 kts 133°
2026-05-04 17:23 48.95271 10.54314 18855 ft 332 kts 133°
2026-05-04 17:24 48.93699 10.56817 18411 ft 330 kts 133°
2026-05-04 17:24 48.89000 10.64286 17088 ft 323 kts 133°
2026-05-04 17:25 48.87489 10.66684 16663 ft 321 kts 134°
2026-05-04 17:25 48.84401 10.71577 15797 ft 317 kts 134°
2026-05-04 17:26 48.81369 10.76371 14949 ft 313 kts 134°
2026-05-04 17:26 48.76948 10.83318 13844 ft 310 kts 134°
2026-05-04 17:27 48.73962 10.87998 13802 ft 307 kts 134°
2026-05-04 17:27 48.71094 10.92487 13800 ft 308 kts 134°
2026-05-04 17:28 48.68127 10.97118 13760 ft 304 kts 134°
2026-05-04 17:29 48.63763 11.03909 12478 ft 302 kts 134°
2026-05-04 17:29 48.59434 11.10627 11291 ft 297 kts 134°
2026-05-04 17:30 48.54536 11.16066 10096 ft 291 kts 153°
2026-05-04 17:31 48.50919 11.18803 9332 ft 288 kts 153°
2026-05-04 17:31 48.45604 11.22812 8217 ft 284 kts 153°
2026-05-04 17:32 48.42095 11.25456 7487 ft 281 kts 153°
2026-05-04 17:33 48.36925 11.29348 6418 ft 276 kts 153°
2026-05-04 17:33 48.35370 11.31050 6014 ft 276 kts 132°
2026-05-04 17:34 48.32834 11.38670 5047 ft 274 kts 113°
2026-05-04 17:34 48.32079 11.41282 5010 ft 272 kts 113°
2026-05-04 17:35 48.29832 11.49060 5000 ft 271 kts 113°
2026-05-04 17:35 48.28112 11.53992 5000 ft 270 kts 122°
2026-05-04 17:35 48.27293 11.56541 5002 ft 271 kts 120°
2026-05-04 17:36 48.26102 11.58574 4994 ft 271 kts 141°
2026-05-04 17:36 48.24426 11.59884 4999 ft 271 kts 163°
2026-05-04 17:36 48.22563 11.60184 5000 ft 271 kts 184°
2026-05-04 17:36 48.20762 11.59456 5000 ft 271 kts 205°
2026-05-04 17:37 48.19247 11.57783 5000 ft 271 kts 227°
2026-05-04 17:37 48.18243 11.55406 5000 ft 271 kts 248°
2026-05-04 17:37 48.17883 11.52668 5000 ft 271 kts 269°
2026-05-04 17:37 48.18209 11.49904 5000 ft 271 kts 290°
2026-05-04 17:38 48.19188 11.47490 5000 ft 271 kts 312°
2026-05-04 17:38 48.20657 11.45804 5028 ft 268 kts 333°
2026-05-04 17:38 48.22365 11.45066 5027 ft 241 kts 354°
2026-05-04 17:38 48.23895 11.45381 5004 ft 205 kts 20°
2026-05-04 17:39 48.25627 11.47882 5001 ft 167 kts 53°
2026-05-04 17:39 48.26334 11.49308 5000 ft 173 kts 53°
2026-05-04 17:39 48.27191 11.50571 4982 ft 173 kts 28°
2026-05-04 17:40 48.28360 11.50937 4992 ft 173 kts 355°
2026-05-04 17:40 48.29520 11.50488 5012 ft 174 kts 343°
2026-05-04 17:40 48.30674 11.49958 5000 ft 174 kts 342°
2026-05-04 17:40 48.31827 11.49425 4999 ft 173 kts 342°
2026-05-04 17:41 48.32982 11.48893 5000 ft 173 kts 342°
2026-05-04 17:41 48.34139 11.48358 5000 ft 173 kts 342°
2026-05-04 17:41 48.35301 11.47822 5000 ft 173 kts 342°
2026-05-04 17:41 48.36441 11.47295 5000 ft 173 kts 342°
2026-05-04 17:42 48.37607 11.46756 5000 ft 173 kts 342°
2026-05-04 17:42 48.38759 11.46224 5000 ft 173 kts 342°
2026-05-04 17:42 48.39902 11.45696 5000 ft 173 kts 342°
2026-05-04 17:42 48.41057 11.45161 5000 ft 173 kts 342°
2026-05-04 17:43 48.42203 11.44588 4991 ft 174 kts 334°
2026-05-04 17:43 48.43073 11.43352 4997 ft 173 kts 299°
2026-05-04 17:43 48.43345 11.41633 4994 ft 173 kts 267°
2026-05-04 17:43 48.42944 11.39930 4996 ft 173 kts 234°
2026-05-04 17:44 48.42148 11.38647 4987 ft 174 kts 214°
2026-05-04 17:44 48.40978 11.38125 4994 ft 173 kts 179°
2026-05-04 17:44 48.39846 11.38648 4995 ft 173 kts 146°
2026-05-04 17:44 48.39074 11.40033 4976 ft 168 kts 116°
2026-05-04 17:45 48.38608 11.41595 4428 ft 173 kts 114°
2026-05-04 17:45 48.38113 11.43278 4053 ft 173 kts 113°
2026-05-04 17:45 48.37635 11.44902 4010 ft 172 kts 113°
2026-05-04 17:45 48.37151 11.46552 4002 ft 171 kts 113°
2026-05-04 17:46 48.36671 11.48183 4000 ft 170 kts 113°
2026-05-04 17:46 48.36199 11.49789 3999 ft 169 kts 113°
2026-05-04 17:46 48.35720 11.51417 4003 ft 171 kts 113°
2026-05-04 17:46 48.35273 11.53081 3998 ft 171 kts 107°
2026-05-04 17:47 48.35010 11.54805 3999 ft 171 kts 98°
2026-05-04 17:47 48.34921 11.56594 4000 ft 171 kts 90°
2026-05-04 17:47 48.34946 11.58397 3941 ft 171 kts 87°
2026-05-04 17:47 48.35006 11.60186 3878 ft 171 kts 83°
2026-05-04 17:48 48.35140 11.61944 3819 ft 170 kts 83°
2026-05-04 17:48 48.35278 11.63728 3767 ft 170 kts 83°
2026-05-04 17:48 48.35414 11.65496 3704 ft 170 kts 84°
2026-05-04 17:48 48.35536 11.67206 3573 ft 154 kts 84°
2026-05-04 17:49 48.35654 11.68764 3317 ft 147 kts 83°
2026-05-04 17:49 48.35774 11.70299 2939 ft 151 kts 83°
2026-05-04 17:49 48.35897 11.71879 2563 ft 151 kts 83°
2026-05-04 17:49 48.36017 11.73423 2273 ft 146 kts 83°
2026-05-04 17:50 48.36135 11.74949 1935 ft 148 kts 83°
2026-05-04 17:50 48.36253 11.76471 1600 ft 147 kts 83°
2026-05-04 17:50 48.36366 11.77925 1471 ft 130 kts 83°
2026-05-04 17:50 48.36453 11.78994 1467 ft 74 kts 83°
2026-05-04 17:51 48.36496 11.79536 1464 ft 47 kts 83°
2026-05-04 17:51 48.36500 11.79977 1463 ft 39 kts 104°
2026-05-04 17:51 48.36429 11.80267 1461 ft 0 kts 113°
2026-05-04 17:53 48.36427 11.80276 1461 ft 5 kts 113°
2026-05-04 17:53 48.36416 11.80315 1461 ft 0 kts 112°
2026-05-04 17:55 48.36415 11.80319 1461 ft 2 kts 112°
2026-05-04 17:55 48.36398 11.80379 1461 ft 6 kts 112°
2026-05-04 17:55 48.36383 11.80431 1461 ft 5 kts 118°
2026-05-04 17:55 48.36357 11.80505 1460 ft 11 kts 117°
2026-05-04 17:56 48.36286 11.80575 1460 ft 12 kts 171°
2026-05-04 17:56 48.36232 11.80587 1461 ft 0 kts 171°
2026-05-04 17:56 48.36203 11.80573 1461 ft 2 kts 222°
2026-05-04 17:57 48.36189 11.80526 1461 ft 8 kts 256°
2026-05-04 17:57 48.36180 11.80449 1462 ft 7 kts 263°
2026-05-04 17:57 48.36174 11.80373 1462 ft 6 kts 263°
2026-05-04 17:57 48.36169 11.80304 1463 ft 8 kts 263°
2026-05-04 17:58 48.36157 11.80148 1464 ft 15 kts 264°
2026-05-04 17:58 48.36148 11.80017 1464 ft 11 kts 263°
2026-05-04 17:58 48.36148 11.80015 1464 ft 11 kts 263°
2026-05-04 17:59 48.36121 11.79669 1466 ft 9 kts 264°
2026-05-04 17:59 48.36113 11.79551 1467 ft 11 kts 265°
2026-05-04 17:59 48.36073 11.79349 1468 ft 13 kts 210°
2026-05-04 18:00 48.36001 11.79335 1469 ft 10 kts 178°
2026-05-04 18:00 48.35928 11.79371 1469 ft 7 kts 151°
2026-05-04 18:00 48.35890 11.79395 1469 ft 0 kts 162°
2026-05-04 18:01 48.35869 11.79406 1470 ft 8 kts 162°
2026-05-04 18:01 48.35834 11.79421 1470 ft 2 kts 168°
2026-05-04 18:02 48.35821 11.79424 1470 ft 0 kts 170°
2026-05-04 18:02 48.35815 11.79426 1470 ft 5 kts 171°
2026-05-04 18:02 48.35749 11.79442 1471 ft 9 kts 169°
2026-05-04 18:02 48.35739 11.79445 1471 ft 0 kts 170°
2026-05-04 18:03 48.35738 11.79445 1471 ft 0 kts 170°
2026-05-04 18:03 48.35717 11.79451 1471 ft 0 kts 171°
2026-05-04 18:05 48.35701 11.79456 1471 ft 6 kts 166°
2026-05-04 18:05 48.35642 11.79475 1471 ft 0 kts 171°